461 Szeged University, Piszkesteto Stn. (Konkoly). Observers K. Sarneczky,
T. Szalai. 0.60-m Schmidt + CCD.
557 Ondrejov. Observer P. Kusnirak. 0.65-m f/3.6 reflector + CCD.
620 Observatorio Astronomico de Mallorca. Observers A. Petrov, S. Cikota,
N. Udovicic, R. Stoss. 0.30-m f/9 Schmidt-Cassegrain + CCD.
673 Table Mountain Observatory, Wrightwood. Observer J. Young. Measurer
M. Vale. 0.6-m reflector + CCD.
952 Marxuquera. Observer J. J. Gomez. 0.25-m f/7.3 Schmidt-Cassegrain + CCD.
A16 Tentlingen. Observer P. Kocher. 0.3-m f/4 reflector + CCD.
E12 Siding Spring Survey. Observers R. H. McNaught, G. J. Garradd, S. Larson,
E. Beshore, E. Christensen, R. Hill, D. McLean. 0.5-m Uppsala Schmidt
+ CCD.
G70 Francisquito Observatory, Los Angeles. Observer R. E. Jones. 0.30-m
f/6.7 reflector + CCD.
H06 New Mexico Skies Observatory. Observer R. Hutsebaut. 0.25-m reflector
+ CCD.
H36 Sandlot Observatory, Scranton. Observer G. Hug. 0.3-m Schmidt-Cassegrain
+ CCD.
Orbital elements:
2004 PT42
Epoch 2004 Aug. 3.0 TT = JDT 2453220.5 MPC
M 355.56851 (2000.0) P Q
n 0.34350732 Peri. 178.98474 +0.81277344 +0.39077174
a 2.0191971 Node 145.04175 -0.53968098 +0.78436823
e 0.4176376 Incl. 48.94687 -0.21941690 -0.48173013
P 2.87 H 16.6 G 0.15
From 138 observations 2004 Aug. 11-12.
Ephemeris:
2004 PT42 a,e,i = 2.02, 0.42, 49 q = 1.1759
Date TT R. A. (2000) Decl. Delta r Elong. Phase V
2004 08 13 22 01.51 +08 05.4 0.176 1.176 156.1 20.4 14.2
2004 08 23 22 11.47 -40 23.7 0.187 1.178 151.0 24.6 14.5
2004 09 02 22 26.08 -66 02.2 0.292 1.189 121.8 46.2 16.1
2004 09 12 22 47.95 -75 39.9 0.423 1.208 108.3 52.3 17.1
2004 09 22 23 17.30 -79 22.2 0.556 1.235 100.8 53.0 17.7
2004 10 02 23 49.25 -80 23.9 0.684 1.268 95.8 51.7 18.2
2004 10 12 00 17.14 -79 55.8 0.804 1.308 92.4 49.7 18.6
2004 10 22 00 39.23 -78 28.1 0.915 1.352 90.0 47.4 18.9
2004 11 01 00 57.10 -76 16.4 1.017 1.400 88.3 45.1 19.1
2004 11 11 01 12.56 -73 28.3 1.109 1.450 87.2 43.0 19.3
2004 11 21 01 27.03 -70 08.3 1.193 1.503 86.6 41.0 19.5
2004 12 01 01 41.28 -66 20.6 1.270 1.558 86.3 39.2 19.6
2004 12 11 01 55.59 -62 08.5 1.343 1.613 86.2 37.5 19.8
2004 12 21 02 10.20 -57 35.7 1.415 1.668 86.2 36.0 19.9
2004 12 31 02 25.16 -52 47.3 1.486 1.724 86.0 34.7 20.1
2005 01 10 02 40.46 -47 48.4 1.561 1.779 85.6 33.4 20.2
2005 01 20 02 56.13 -42 45.0 1.641 1.834 84.7 32.3 20.4
2005 01 30 03 12.13 -37 43.4 1.727 1.888 83.4 31.2 20.5
2005 02 09 03 28.42 -32 49.1 1.821 1.941 81.6 30.2 20.6
2005 02 19 03 45.00 -28 07.5 1.924 1.992 79.3 29.2 20.8
2005 03 01 04 01.79 -23 42.7 2.034 2.043 76.4 28.1 20.9
2005 03 11 04 18.78 -19 37.6 2.151 2.092 73.2 27.0 21.1
2005 03 21 04 35.93 -15 54.1 2.275 2.140 69.5 25.8 21.2
2005 03 31 04 53.18 -12 33.1 2.402 2.187 65.5 24.6 21.3
2005 04 10 05 10.49 -09 34.6 2.532 2.232 61.3 23.2 21.5
Timothy B. Spahr (C) Copyright 2004 MPC M.P.E.C. 2004-P45
Read MPEC 2004-P44
Read MPEC 2004-P46
Our Web policy. Index to the CBAT/MPC/ICQ pages.